Location: *
(50.9167°S, 179.4000°W)
Time: 21:13:37
(UTC+00:00)

ARIANE 5 R/B - Pass Details

Date: 03 March 2024
Orbit: 748 x 793 km, 98.8° (Epoch: 16 April)

Event Time Altitude Azimuth Distance (km) Brightness Sun altitude
Rises 15:51:29 0° 14° (NNE) 3,278 5.6 -15.5°
Reaches altitude 10° 15:53:47 10° 13° (NNE) 2,362 4.8 -15.2°
Maximum altitude 15:59:02 81° 285° (WNW) 820 2.5 -14.5°
Drops below altitude 10° 16:04:23 10° 197° (SSW) 2,402 5.2 -13.8°
Sets 16:06:44 0° 195° (SSW) 3,339 6.0 -13.4°
